518  
ASUS46 KEKA 111511  
RWREKA  
EUREKA AREA WEATHER ROUNDUP  
NATIONAL WEATHER SERVICE EUREKA CA  
800 AM PDT THU AUG 11 2022  
 
NOTE: "FAIR" INDICATES FEW OR NO CLOUDS BELOW 12,000 FEET WITH NO  
SIGNIFICANT WEATHER AND/OR S TO VISIBILITY
.  
 
SOUTHWEST OREGON...  
 
CITY SKY/WX TMP DP RH WIND PRES REMARKS
 
MEDFORD SUNNY 63 50 62 CALM 30.10R  
KLAMATH FALLS SUNNY 52 44 74 CALM 30.19R  
NORTH BEND FOG 56 56 100 SE5 30.12F VSB 3/4  
ROSEBURG SUNNY 58 52 80 CALM 30.10S  
SEXTON SUMMIT NOT AVBL  
BROOKINGS SUNNY 56 54 93 CALM 30.11S  
 
NORTHWEST CALIFORNIA...  
 
CITY SKY/WX TMP DP RH WIND PRES REMARKS
 
CRESCENT CITY CLOUDY 58 56 93 S3 30.11S FOG  
MCKINLEYVILLE CLOUDY 59 57 93 CALM 30.11R  
EUREKA CLOUDY 60 32 34 N5 30.11R  
FORTUNA CLOUDY 59 59 100 NW3 30.11R  
WEAVERVILLE NOT AVBL  
TRINITY CENTER NOT AVBL  
UKIAH SUNNY 60 51 72 CALM 30.08R  
 
NORTH & CENTRAL CALIFORNIA...  
 
CITY SKY/WX TMP DP RH WIND PRES REMARKS
 
YREKA SUNNY 60 43 53 CALM 30.14S  
MOUNT SHASTA SUNNY 56 39 53 CALM 30.15F  
REDDING SUNNY 70 42 36 NE3 30.03R  
RED BLUFF SUNNY 68 44 42 CALM 30.04R  
CHICO N/A 68 48 49 CALM 30.04S  
YUBA CITY SUNNY 67 55 65 E3 30.03R  
SACRAMENTO SUNNY 64 59 83 S7 30.02R  
SANTA ROSA FOG 55 55 100 CALM 30.07R VSB 1/4  
NAPA SUNNY 60 58 92 NW3 30.06R  
TRAVIS AFB NOT AVBL  
SAN FRANCISCO PTSUNNY 65 56 72 W18 30.07R  
OAKLAND CLOUDY 63 57 81 W13 30.09R  
STOCKTON NOT AVBL  
SALINAS CLOUDY 63 58 83 N3 30.07R  
MONTEREY MOSUNNY 64 57 78 S3 30.08S  
 

 
 
 
CLICK HERE TO GO TO PREVIOUS BULLETINS.

The Nexlab CA Page Main Text Page